Location: Bord�res
(43.2000°N, 0.2167°W)
Time: 11:57:13
(UTC+00:00)

USA 234 - Pass Details

Date: 03 March 2021
Orbit: 1102 x 1105 km, 123.0° (Epoch: 18 April)

Event Time Altitude Azimuth Distance (km) Brightness Sun altitude
Exits shadow 21:27:20 38° 349° (N) 1,612 4.3 -38.4°
Maximum altitude 21:27:54 39° 337° (NNW) 1,593 4.3 -38.5°
Drops below altitude 10° 21:33:51 10° 271° (W) 2,961 6.0 -39.4°
Sets 21:36:29 0° 264° (W) 3,917 6.7 -39.8°
